Dunkirk, NY

2:35 AM EST on November 13, 2019 (GMT -0500)
Chautauqua County-Dunkirk

Weather History for KDKK - October, 2019

Change the Weather History Date:

Sunday, October 20, 2019

  Actual Average Record
Temperature  
Mean Temperature 52 °F -  
Max Temperature 66 °F 58 °F 79 °F (1936)
Min Temperature 41 °F 40 °F 25 °F (1934)
Degree Days  
Heating Degree Days 12    
Growing Degree Days 2 (Base 50)    
Moisture  
Dew Point 43 °F    
Average Humidity 71    
Maximum Humidity 93    
Minimum Humidity 50    
Precipitation  
Precipitation 0.00 in - - ()
Sea Level Pressure  
Sea Level Pressure 29.92 in    
Wind  
Wind Speed 4 mph (SSW)    
Max Wind Speed 12 mph    
Max Gust Speed -    
Visibility 10 miles    
Events      
Averages and records for this station are not official NWS values.
T = Trace of Precipitation, MM = Missing Value Source: NWS Daily Summary

Daily Weather History Graph

Daily Weather History Graph

Search for Another Location

Airport or City:

Astronomy

Oct. 20, 2019 Rise Set
Actual Time 7:35 AM EDT 6:27 PM EDT
Civil Twilight 7:07 AM EDT 6:55 PM EDT
Nautical Twilight 6:34 AM EDT 7:28 PM EDT
Astronomical Twilight 6:01 AM EDT 8:01 PM EDT
Moon 11:29 PM EDT (10/20) 2:07 PM EDT (10/20)
Length of Visible Light 11h 48m
Length of Day
10h 51m
Waning Gibbous, 59% of the Moon is Illuminated
Oct 20
Waning Gibbous
Oct 21
Last Quarter
Oct 27
New
Nov 4
First Quarter
Nov 12
Full

Hourly Weather History & Observations

Time (EDT) Temp. Windchill Dew Point Humidity Pressure Visibility Wind Dir Wind Speed Gust Speed Precip Events Conditions
12:53 AM 45.0 °F 41.8 °F 37.9 °F 76% 29.89 in 10.0 mi NNW 5.8 mph - N/A   Clear
1:53 AM 43.0 °F - 39.0 °F 86% 29.89 in 10.0 mi Calm Calm - N/A   Clear
2:53 AM 46.9 °F - 39.9 °F 77% 29.89 in 10.0 mi NNW 4.6 mph - N/A   Clear
3:53 AM 41.0 °F 39.0 °F 37.0 °F 86% 29.88 in 10.0 mi South 3.5 mph - N/A   Clear
4:53 AM 51.1 °F - 41.0 °F 68% 29.87 in 10.0 mi South 6.9 mph - N/A   Clear
5:53 AM 43.0 °F - 37.9 °F 82% 29.88 in 10.0 mi Calm Calm - N/A   Clear
6:53 AM 48.0 °F - 39.9 °F 74% 29.88 in 10.0 mi South 5.8 mph - N/A   Clear
7:53 AM 50.0 °F - 41.0 °F 71% 29.88 in 10.0 mi SSW 3.5 mph - N/A   Clear
8:53 AM 53.1 °F - 42.1 °F 66% 29.89 in 10.0 mi South 6.9 mph - N/A   Clear
9:53 AM 57.0 °F - 44.1 °F 62% 29.90 in 10.0 mi South 4.6 mph - N/A   Clear
10:53 AM 61.0 °F - 44.1 °F 54% 29.91 in 10.0 mi South 11.5 mph - N/A   Clear
11:53 AM 64.9 °F - 46.0 °F 50% 29.91 in 10.0 mi SSW 8.1 mph - N/A   Clear
12:53 PM 64.0 °F - 45.0 °F 50% 29.91 in 10.0 mi SSW 6.9 mph - N/A   Clear
1:53 PM 64.0 °F - 45.0 °F 50% 29.91 in 10.0 mi NNW 8.1 mph - N/A   Clear
2:53 PM 64.0 °F - 48.9 °F 58% 29.91 in 10.0 mi North 5.8 mph - N/A   Clear
3:53 PM 64.0 °F - 46.0 °F 52% 29.92 in 10.0 mi NNW 4.6 mph - N/A   Clear
4:53 PM 64.9 °F - 46.9 °F 52% 29.93 in 10.0 mi North 3.5 mph - N/A   Clear
5:53 PM 62.1 °F - 46.9 °F 58% 29.93 in 10.0 mi NNE 3.5 mph - N/A   Clear
6:53 PM 54.0 °F - 46.9 °F 77% 29.94 in 10.0 mi Calm Calm - N/A   Clear
7:53 PM 50.0 °F - 45.0 °F 83% 29.96 in 10.0 mi Calm Calm - N/A   Clear
8:53 PM 46.0 °F - 43.0 °F 89% 29.97 in 10.0 mi Calm Calm - N/A   Clear
9:53 PM 46.9 °F - 44.1 °F 90% 29.97 in 9.0 mi South 3.5 mph - N/A   Clear
10:53 PM 43.0 °F 41.3 °F 41.0 °F 93% 30.00 in 10.0 mi South 3.5 mph - N/A   Clear
11:53 PM 44.1 °F - 42.1 °F 93% 30.00 in 10.0 mi Calm Calm - N/A   Clear